Regional Weather Roundup
Issued by NWS Burlington, VT

Current Version | Previous Version | Text Only | Print | Product List | Glossary On
Versions: 1 2 3 4 5 6 7 8 9 10 11 12 13 14 15 16 17 18 19 20 21 22 23 24 25 26 27 28 29 30 31 32 33 34 35 36 37 38 39 40 41 42 43 44 45 46 47 48 49 50
000
ASUS41 KBTV 180630
RWRBTV
VERMONT REGIONAL WEATHER ROUNDUP
NATIONAL WEATHER SERVICE BURLINGTON VT
200 AM EDT FRI APR 18 2014

NOTE: "FAIR" INDICATES FEW OR NO CLOUDS BELOW 12,000 FEET WITH NO
SIGNIFICANT WEATHER AND/OR OBSTRUCTIONS TO VISIBILITY.

* THESE REPORTS ARE NOT UNDER NWS QUALITY CONTROL AND/OR DO NOT
  REPORT WEATHER SUCH AS PRECIPITATION AND FOG.

VTZ001>019-180700-
_____VERMONT_____


CITY           SKY/WX    TMP DP  RH WIND       PRES   REMARKS
BURLINGTON     FAIR      35  18  49 S5        30.56S
6HR MIN TEMP:  35; 6HR MAX TEMP:  44;

MONTPELIER     FAIR      29  15  56 S8        30.62F
6HR MIN TEMP:  29; 6HR MAX TEMP:  38;

MORRISVILLE    FAIR      31  16  54 S5        30.60F
6HR MIN TEMP:  31; 6HR MAX TEMP:  40;

ST. JOHNSBURY*   N/A     29  18  63 MISG      30.59F
6HR MIN TEMP:  29; 6HR MAX TEMP:  41;

LYNDONVILLE*   FAIR      29  14  53 S7        30.59S
6HR MIN TEMP:  29; 6HR MAX TEMP:  38;

MIDDLEBURY*    FAIR      36   8  30 SE6       30.56S
6HR MIN TEMP:  36; 6HR MAX TEMP:  44;

RUTLAND*       FAIR      30  12  47 SE9       30.58F
6HR MIN TEMP:  30; 6HR MAX TEMP:  43;

SPRINGFIELD    FAIR      25  20  81 CALM      30.63F
6HR MIN TEMP:  25; 6HR MAX TEMP:  40;

HIGHGATE*      FAIR      38  16  41 SE9       30.52F
6HR MIN TEMP:  36; 6HR MAX TEMP:  42;

NEWPORT*       FAIR      33  15  46 S8        30.57S
6HR MIN TEMP:  33; 6HR MAX TEMP:  42;

BENNINGTON     FAIR      33  14  45 E10       30.57S
6HR MIN TEMP:  31; 6HR MAX TEMP:  44;

SUTTON*          N/A     25 N/A N/A MISG        N/A
GALLUP MILLS*    N/A     19 N/A N/A MISG        N/A
UNION VILLAGE*   N/A     25 N/A N/A MISG        N/A
MT. MANSFIELD*   N/A     21 N/A N/A S18         N/A  WCI   6

_____LAKE CHAMPLAIN_____


CITY           SKY/WX    TMP DP  RH WIND       PRES   REMARKS
BURTON ISLAND*   N/A     39  25  56 SE12        N/A
COLCHESTER RF*   N/A     37  28  70 S22         N/A
DIAMOND ISL*     N/A     37  16  41 S21         N/A

$$

NYZ007-026>031-035-052-083-180700-
_____NORTHERN NEW YORK_____


CITY           SKY/WX    TMP DP  RH WIND       PRES   REMARKS
PLATTSBURGH    FAIR      37  21  52 S7        30.53F
6HR MIN TEMP:  32; 6HR MAX TEMP:  40;

SARANAC LAKE   FAIR      23  19  85 CALM      30.44F
6HR MIN TEMP:  22; 6HR MAX TEMP:  39;

MASSENA        FAIR      40  21  46 S7        30.47F
6HR MIN TEMP:  34; 6HR MAX TEMP:  43;

OGDENSBURG*    CLEAR     41  25  52 S10G17    30.44S
POTSDAM*       CLEAR     43  25  49 S13       30.44F
PARISHVILLE*     N/A     36 N/A N/A SE17        N/A
WATERTOWN      FAIR      45  21  38 S13G22    30.44S
6HR MIN TEMP:  42; 6HR MAX TEMP:  48;

FT DRUM        FAIR      40  23  50 S13       30.44S
6HR MIN TEMP:  40; 6HR MAX TEMP:  47;

ALBANY         FAIR      36  20  52 SE6       30.60S
6HR MIN TEMP:  36; 6HR MAX TEMP:  48;

GLENS FALLS    FAIR     N/A N/A N/A CALM      30.59S

$$
NHZ002-005-011-180700-
_____NEW HAMPSHIRE_____


CITY           SKY/WX    TMP DP  RH WIND       PRES   REMARKS
LEBANON        FAIR      25  19  78 CALM      30.62F
6HR MIN TEMP:  24; 6HR MAX TEMP:  41;

KEENE          FAIR      27  19  74 CALM      30.63S
6HR MIN TEMP:  27; 6HR MAX TEMP:  37;

MT WASHINGTON  PTCLDY    23 -17  16 S25         N/A  WCI   7
6HR MIN TEMP:  18; 6HR MAX TEMP:  26;

PLYMOUTH         N/A     25  23  91 CALM      30.64S
6HR MIN TEMP:  26; 6HR MAX TEMP:  40;

WHITEFIELD     FAIR      28  17  63 CALM      30.58F
6HR MIN TEMP:  28; 6HR MAX TEMP:  39;


$$

_____REGIONAL QUEBEC LOCATIONS_____


CITY           SKY/WX    TMP DP  RH WIND       PRES   REMARKS
MONTREAL       MOCLDY    39  23  52 S10       30.49F
QUEBEC CITY    PTCLDY    32  21  64 NE6       30.58F
SHERBROOKE     CLEAR     30  18  59 SE3       30.56F

_____REGIONAL ONTARIO LOCATIONS_____


CITY           SKY/WX    TMP DP  RH WIND       PRES   REMARKS
OTTAWA         MOCLDY    32  23  69 E7        30.43F

______KEY______
VSB  - VISIBILITY IN MILES
WCI  - WIND CHILL INDEX
HX   - HEAT INDEX
$$
NNNN


USA.gov is the U.S. government's official web portal to all federal, state and local government web resources and services.